Find OneWeb SL0033

NORAD ID: 45142 Int'l Des: 2020-008 Owner: ONEWEB Country: UK Constellation: oneweb operational
LEOCIRCULARPOLARONEWEB_TYPE

实时位置

正在加载3D地球...

关于 OneWeb SL0033

正在加载描述...

即将过境

Passes for default location (London). Set your location on the main map for personalized predictions.

高度历史

Loading altitude history...

两行轨道根数

1 45142U 20008M 26123.23100570 .00000680 00000-0 19124-2 0 9991
2 45142 87.8852 45.2242 0001714 62.6479 297.4822 13.10374252302324
Epoch: May 3, 2026 • Age: 7 hours

当前状态

高度 1247.9 km
速度 7.23 km/s
星下点 -65.07°S, 176.04°W
发射日期 Feb 6, 2020
运行时间 6.2 years
类型 internet

技术详情

分类 Payload
质量 148.00 kg
干质量 140.00 kg
总质量 148.00 kg
长度 1.30 m
直径 1.00 m
跨度 5.00 m
形状 Trapezoid+2 pan
制造商 ONEWUS
平台类型 ARROW
阶段状态 In Orbit
所有者/国家 ONEWEB/UK

Most Searched